| time (UTC) | temp F | wind direction | speed knots | gust knots | rain 1hr in | rain 24hr in | rain mn in | humidity % | barometer mb |
| 20260507074003 | 63 | 204 | 3.5 | 7.0 | 0.00 | 0.00 | 0.00 | 83 | 1013.0 |
| 20260507073503 | 63 | 207 | 2.6 | 7.8 | 0.00 | 0.00 | 0.00 | 82 | 1012.8 |
| 20260507073003 | 63 | 212 | 2.6 | 7.8 | 0.00 | 0.00 | 0.00 | 83 | 1012.8 |
| 20260507072503 | 62 | 193 | 2.6 | 5.2 | 0.00 | 0.00 | 0.00 | 83 | 1012.6 |
| 20260507072003 | 62 | 178 | 1.7 | 5.2 | 0.00 | 0.00 | 0.00 | 85 | 1012.6 |
| 20260507071503 | 62 | 176 | 1.7 | 3.5 | 0.00 | 0.00 | 0.00 | 86 | 1012.6 |
| 20260507071003 | 61 | 169 | 1.7 | 3.5 | 0.00 | 0.00 | 0.00 | 86 | 1012.6 |
| 20260507070503 | 60 | 179 | 1.7 | 3.5 | 0.00 | 0.00 | 0.00 | 87 | 1012.3 |
| 20260507070006 | 60 | 192 | 2.6 | 3.5 | 0.00 | 0.00 | 0.00 | 87 | 1012.3 |
| 20260507065503 | 60 | 229 | 2.6 | 3.5 | 0.00 | 0.00 | 0.00 | 88 | 1012.3 |
| 20260507065003 | 60 | 218 | 1.7 | 3.5 | 0.00 | 0.00 | 0.00 | 88 | 1012.4 |
| 20260507064503 | 59 | 189 | 0.9 | 3.5 | 0.00 | 0.00 | 0.00 | 89 | 1012.5 |
| 20260507064003 | 59 | 212 | 0.9 | 3.5 | 0.00 | 0.00 | 0.00 | 89 | 1012.5 |
| 20260507063503 | 59 | 218 | 1.7 | 5.2 | 0.00 | 0.00 | 0.00 | 90 | 1012.3 |
| 20260507063003 | 58 | 68 | 0.9 | 5.2 | 0.00 | 0.00 | 0.00 | 91 | 1012.3 |
| 20260507062503 | 58 | 47 | 0.0 | 1.7 | 0.00 | 0.00 | 0.00 | 91 | 1012.1 |
| 20260507062003 | 58 | 47 | 0.0 | 1.7 | 0.00 | 0.00 | 0.00 | 91 | 1012.2 |
| 20260507061503 | 57 | 47 | 0.0 | 1.7 | 0.00 | 0.00 | 0.00 | 91 | 1012.2 |
| 20260507061003 | 57 | 47 | 0.0 | 1.7 | 0.00 | 0.00 | 0.00 | 91 | 1012.3 |
| 20260507060503 | 57 | 47 | 0.0 | 1.7 | 0.00 | 0.00 | 0.00 | 91 | 1012.5 |
| 20260507060003 | 57 | 47 | 0.0 | 1.7 | 0.00 | 0.00 | 0.00 | 91 | 1012.3 |
| 20260507055503 | 56 | 47 | 0.0 | 1.7 | 0.00 | 0.00 | 0.00 | 91 | 1012.2 |
| 20260507055003 | 56 | 47 | 0.0 | 1.7 | 0.00 | 0.00 | 0.00 | 91 | 1012.4 |
| 20260507054503 | 56 | 47 | 0.0 | 1.7 | 0.00 | 0.00 | 0.00 | 90 | 1012.2 |
| 20260507054003 | 56 | 47 | 0.0 | 1.7 | 0.00 | 0.00 | 0.00 | 90 | 1012.1 |
| 20260507053503 | 55 | 47 | 0.0 | 1.7 | 0.00 | 0.00 | 0.00 | 90 | 1012.0 |
| 20260507053004 | 55 | 47 | 0.0 | 1.7 | 0.00 | 0.00 | 0.00 | 90 | 1011.9 |
| 20260507052503 | 55 | 47 | 0.0 | 1.7 | 0.00 | 0.00 | 0.00 | 90 | 1011.8 |
| 20260507052003 | 55 | 47 | 0.0 | 1.7 | 0.00 | 0.00 | 0.00 | 90 | 1011.9 |
| 20260507051503 | 55 | 47 | 0.0 | 1.7 | 0.00 | 0.00 | 0.00 | 90 | 1011.8 |
| 20260507051003 | 54 | 47 | 0.0 | 1.7 | 0.00 | 0.00 | 0.00 | 90 | 1011.8 |
| 20260507050503 | 54 | 47 | 0.0 | 1.7 | 0.00 | 0.00 | 0.00 | 90 | 1011.7 |
| 20260507050003 | 54 | 47 | 0.0 | 1.7 | 0.00 | 0.00 | 0.00 | 90 | 1011.6 |
| 20260507045503 | 54 | 47 | 0.0 | 1.7 | 0.00 | 0.00 | 0.00 | 90 | 1011.7 |
| 20260507045003 | 54 | 47 | 0.0 | 1.7 | 0.00 | 0.00 | 0.00 | 90 | 1011.6 |
| 20260507044503 | 54 | 47 | 0.0 | 1.7 | 0.00 | 0.00 | 0.00 | 90 | 1011.5 |
| 20260507044003 | 54 | 47 | 0.0 | 1.7 | 0.00 | 0.00 | 0.00 | 90 | 1011.4 |
| 20260507043503 | 54 | 47 | 0.0 | 1.7 | 0.00 | 0.00 | 0.00 | 90 | 1011.4 |
| 20260507043003 | 54 | 47 | 0.0 | 1.7 | 0.00 | 0.00 | 0.00 | 90 | 1011.4 |
| 20260507042503 | 54 | 47 | 0.0 | 1.7 | 0.00 | 0.00 | 0.00 | 90 | 1011.4 |
| 20260507042003 | 54 | 47 | 0.0 | 1.7 | 0.00 | 0.00 | 0.00 | 90 | 1011.3 |
| 20260507041503 | 54 | 47 | 0.0 | 1.7 | 0.00 | 0.00 | 0.00 | 90 | 1011.3 |
| 20260507041003 | 54 | 47 | 0.0 | 1.7 | 0.00 | 0.00 | 0.00 | 90 | 1011.1 |
| 20260507040504 | 54 | 47 | 0.0 | 1.7 | 0.00 | 0.00 | 0.00 | 90 | 1011.1 |
| 20260507040003 | 54 | 47 | 0.0 | 1.7 | 0.00 | 0.00 | 0.00 | 90 | 1011.1 |
| 20260507035503 | 54 | 47 | 0.0 | 1.7 | 0.00 | 0.00 | 0.00 | 90 | 1011.1 |
| 20260507035003 | 53 | 47 | 0.0 | 1.7 | 0.00 | 0.00 | 0.00 | 90 | 1011.0 |
| 20260507034503 | 53 | 47 | 0.0 | 1.7 | 0.00 | 0.00 | 0.00 | 89 | 1011.1 |
| 20260507034003 | 53 | 47 | 0.0 | 1.7 | 0.00 | 0.00 | 0.00 | 89 | 1011.1 |
| 20260507033503 | 53 | 47 | 0.0 | 1.7 | 0.00 | 0.00 | 0.00 | 89 | 1010.9 |
| 20260507033003 | 54 | 47 | 0.0 | 1.7 | 0.00 | 0.00 | 0.00 | 89 | 1011.0 |
| 20260507032503 | 54 | 47 | 0.0 | 1.7 | 0.00 | 0.00 | 0.00 | 89 | 1010.9 |
| 20260507032003 | 54 | 47 | 0.0 | 1.7 | 0.00 | 0.01 | 0.00 | 89 | 1011.1 |
| 20260507031503 | 54 | 47 | 0.0 | 1.7 | 0.00 | 0.01 | 0.00 | 89 | 1011.0 |
| 20260507031003 | 54 | 47 | 0.0 | 1.7 | 0.00 | 0.01 | 0.00 | 89 | 1011.0 |
| 20260507030503 | 54 | 47 | 0.0 | 1.7 | 0.00 | 0.01 | 0.00 | 89 | 1010.8 |
| 20260507030003 | 54 | 47 | 0.0 | 1.7 | 0.00 | 0.01 | 0.00 | 89 | 1010.9 |
| 20260507025503 | 54 | 47 | 0.0 | 1.7 | 0.00 | 0.01 | 0.00 | 89 | 1011.0 |
| 20260507025003 | 53 | 47 | 0.0 | 1.7 | 0.00 | 0.01 | 0.00 | 89 | 1010.9 |
| 20260507024503 | 53 | 47 | 0.0 | 1.7 | 0.00 | 0.01 | 0.00 | 89 | 1010.8 |
| 20260507024003 | 53 | 47 | 0.0 | 1.7 | 0.00 | 0.01 | 0.00 | 89 | 1010.9 |
| 20260507023503 | 54 | 47 | 0.0 | 1.7 | 0.00 | 0.01 | 0.00 | 89 | 1010.9 |
| 20260507023003 | 54 | 47 | 0.0 | 1.7 | 0.00 | 0.01 | 0.00 | 89 | 1010.8 |
| 20260507022503 | 54 | 47 | 0.0 | 1.7 | 0.00 | 0.01 | 0.00 | 89 | 1010.9 |
| 20260507022003 | 54 | 47 | 0.0 | 1.7 | 0.00 | 0.01 | 0.00 | 89 | 1010.8 |
| 20260507021503 | 54 | 47 | 0.0 | 1.7 | 0.00 | 0.01 | 0.00 | 89 | 1010.8 |
| 20260507021003 | 54 | 47 | 0.0 | 1.7 | 0.00 | 0.01 | 0.00 | 89 | 1010.6 |
| 20260507020503 | 54 | 47 | 0.0 | 1.7 | 0.00 | 0.01 | 0.00 | 89 | 1010.7 |
| 20260507020003 | 54 | 47 | 0.0 | 1.7 | 0.00 | 0.01 | 0.00 | 89 | 1010.9 |
| 20260507015503 | 54 | 47 | 0.0 | 1.7 | 0.00 | 0.01 | 0.00 | 89 | 1010.6 |
| 20260507015003 | 55 | 47 | 0.0 | 1.7 | 0.00 | 0.01 | 0.00 | 89 | 1010.6 |
| 20260507014503 | 55 | 47 | 0.0 | 1.7 | 0.00 | 0.01 | 0.00 | 89 | 1010.5 |
| 20260507014003 | 55 | 47 | 0.0 | 1.7 | 0.00 | 0.01 | 0.00 | 89 | 1011.0 |
| 20260507013503 | 55 | 47 | 0.0 | 1.7 | 0.00 | 0.01 | 0.00 | 89 | 1011.0 |
| 20260507013003 | 55 | 47 | 0.0 | 1.7 | 0.00 | 0.01 | 0.00 | 89 | 1010.6 |
| 20260507012503 | 55 | 47 | 0.0 | 1.7 | 0.00 | 0.01 | 0.00 | 89 | 1010.5 |
| 20260507012003 | 55 | 47 | 0.0 | 1.7 | 0.00 | 0.01 | 0.00 | 89 | 1010.5 |
| 20260507011503 | 55 | 47 | 0.0 | 1.7 | 0.00 | 0.01 | 0.00 | 89 | 1010.5 |
| 20260507011003 | 56 | 47 | 0.0 | 1.7 | 0.00 | 0.01 | 0.00 | 89 | 1010.6 |
| 20260507010503 | 55 | 47 | 0.0 | 1.7 | 0.00 | 0.01 | 0.00 | 89 | 1010.6 |
| 20260507010003 | 55 | 47 | 0.0 | 1.7 | 0.00 | 0.01 | 0.00 | 89 | 1010.8 |
| 20260507005503 | 56 | 47 | 0.0 | 1.7 | 0.00 | 0.01 | 0.00 | 88 | 1010.4 |
| 20260507005003 | 56 | 47 | 0.0 | 1.7 | 0.00 | 0.01 | 0.00 | 88 | 1010.6 |
| 20260507004503 | 56 | 47 | 0.0 | 1.7 | 0.00 | 0.01 | 0.00 | 89 | 1010.7 |
| 20260507004003 | 56 | 47 | 0.0 | 1.7 | 0.00 | 0.01 | 0.00 | 89 | 1010.5 |
| 20260507003503 | 56 | 47 | 0.0 | 1.7 | 0.00 | 0.01 | 0.00 | 89 | 1010.8 |
| 20260507003003 | 56 | 47 | 0.0 | 1.7 | 0.00 | 0.01 | 0.00 | 88 | 1010.8 |
| 20260507002503 | 56 | 47 | 0.0 | 1.7 | 0.00 | 0.01 | 0.00 | 88 | 1010.6 |
| 20260507002003 | 56 | 47 | 0.0 | 1.7 | 0.00 | 0.01 | 0.00 | 88 | 1010.8 |
| 20260507001503 | 56 | 47 | 0.0 | 1.7 | 0.00 | 0.01 | 0.00 | 88 | 1010.5 |
| 20260507001003 | 56 | 47 | 0.0 | 1.7 | 0.00 | 0.01 | 0.00 | 88 | 1010.5 |
| 20260507000503 | 56 | 47 | 0.0 | 1.7 | 0.00 | 0.01 | 0.00 | 88 | 1010.7 |
| 20260507000003 | 56 | 47 | 0.0 | 1.7 | 0.00 | 0.01 | 0.00 | 88 | 1010.5 |
| 20260506235503 | 56 | 47 | 0.0 | 1.7 | 0.00 | 0.01 | 0.00 | 88 | 1010.7 |
| 20260506235003 | 56 | 47 | 0.0 | 1.7 | 0.00 | 0.01 | 0.00 | 88 | 1010.6 |
| 20260506234503 | 56 | 47 | 0.0 | 1.7 | 0.00 | 0.01 | 0.00 | 88 | 1010.3 |
| 20260506234003 | 56 | 47 | 0.0 | 1.7 | 0.00 | 0.01 | 0.00 | 88 | 1010.6 |
| 20260506233503 | 57 | 47 | 0.0 | 1.7 | 0.00 | 0.01 | 0.00 | 88 | 1010.6 |
| 20260506233003 | 57 | 47 | 0.0 | 1.7 | 0.00 | 0.01 | 0.00 | 88 | 1010.7 |
| 20260506232503 | 57 | 47 | 0.0 | 1.7 | 0.00 | 0.01 | 0.00 | 88 | 1010.8 |
| 20260506232003 | 57 | 47 | 0.0 | 1.7 | 0.00 | 0.01 | 0.00 | 88 | 1010.9 |
| 20260506231503 | 57 | 47 | 0.0 | 1.7 | 0.00 | 0.01 | 0.00 | 88 | 1010.8 |
| 20260506231003 | 57 | 47 | 0.0 | 1.7 | 0.00 | 0.01 | 0.00 | 88 | 1010.9 |
| 20260506230503 | 57 | 47 | 0.0 | 1.7 | 0.00 | 0.01 | 0.00 | 88 | 1010.6 |
| 20260506230003 | 57 | 47 | 0.0 | 1.7 | 0.00 | 0.01 | 0.00 | 88 | 1010.6 |
| 20260506225503 | 57 | 47 | 0.0 | 1.7 | 0.00 | 0.01 | 0.00 | 88 | 1010.6 |
| 20260506225003 | 57 | 47 | 0.0 | 1.7 | 0.00 | 0.01 | 0.00 | 88 | 1010.6 |
| 20260506224503 | 57 | 47 | 0.0 | 1.7 | 0.00 | 0.01 | 0.00 | 88 | 1010.6 |
| 20260506224003 | 57 | 47 | 0.0 | 1.7 | 0.00 | 0.01 | 0.00 | 88 | 1010.7 |
| 20260506223503 | 57 | 47 | 0.0 | 1.7 | 0.00 | 0.01 | 0.00 | 88 | 1010.6 |
| 20260506223003 | 57 | 47 | 0.0 | 1.7 | 0.00 | 0.01 | 0.00 | 88 | 1010.5 |
| 20260506222503 | 57 | 47 | 0.0 | 1.7 | 0.00 | 0.01 | 0.00 | 88 | 1010.4 |
| 20260506222003 | 57 | 47 | 0.0 | 1.7 | 0.00 | 0.01 | 0.00 | 88 | 1010.5 |
| 20260506221504 | 57 | 47 | 0.0 | 1.7 | 0.00 | 0.01 | 0.00 | 87 | 1010.5 |
| 20260506221003 | 57 | 47 | 0.0 | 1.7 | 0.00 | 0.01 | 0.00 | 87 | 1010.5 |
| 20260506220503 | 57 | 47 | 0.0 | 1.7 | 0.00 | 0.01 | 0.00 | 87 | 1010.6 |
| 20260506220003 | 58 | 47 | 0.0 | 1.7 | 0.00 | 0.01 | 0.00 | 87 | 1010.5 |
| 20260506215503 | 58 | 47 | 0.0 | 1.7 | 0.00 | 0.01 | 0.01 | 87 | 1010.6 |
| 20260506215003 | 58 | 47 | 0.0 | 1.7 | 0.00 | 0.01 | 0.01 | 87 | 1010.7 |
| 20260506214503 | 58 | 47 | 0.0 | 1.7 | 0.00 | 0.01 | 0.01 | 87 | 1010.5 |
| 20260506214003 | 58 | 47 | 0.0 | 1.7 | 0.00 | 0.01 | 0.01 | 87 | 1010.4 |
| 20260506213503 | 58 | 47 | 0.0 | 1.7 | 0.00 | 0.01 | 0.01 | 87 | 1010.4 |
| 20260506213003 | 58 | 47 | 0.0 | 1.7 | 0.00 | 0.01 | 0.01 | 87 | 1010.5 |
| 20260506212503 | 58 | 47 | 0.0 | 1.7 | 0.00 | 0.01 | 0.01 | 87 | 1010.5 |
| 20260506212003 | 58 | 47 | 0.0 | 1.7 | 0.00 | 0.01 | 0.01 | 87 | 1010.4 |
| 20260506211503 | 58 | 47 | 0.0 | 1.7 | 0.00 | 0.01 | 0.01 | 87 | 1010.6 |
| 20260506211003 | 58 | 47 | 0.0 | 1.7 | 0.00 | 0.01 | 0.01 | 87 | 1010.4 |
| 20260506210503 | 59 | 47 | 0.0 | 1.7 | 0.00 | 0.01 | 0.01 | 87 | 1010.3 |
| 20260506210003 | 59 | 47 | 0.0 | 1.7 | 0.00 | 0.01 | 0.01 | 87 | 1010.3 |
| 20260506205503 | 59 | 47 | 0.0 | 1.7 | 0.00 | 0.01 | 0.01 | 87 | 1010.4 |
| 20260506205003 | 59 | 47 | 0.0 | 1.7 | 0.00 | 0.01 | 0.01 | 87 | 1010.5 |
| 20260506204503 | 59 | 47 | 0.0 | 1.7 | 0.00 | 0.01 | 0.01 | 86 | 1010.0 |
| 20260506204003 | 59 | 47 | 0.0 | 1.7 | 0.00 | 0.01 | 0.01 | 86 | 1010.1 |
| 20260506203503 | 59 | 47 | 0.0 | 1.7 | 0.00 | 0.01 | 0.01 | 86 | 1010.1 |
| 20260506203003 | 59 | 47 | 0.0 | 1.7 | 0.00 | 0.01 | 0.01 | 86 | 1010.3 |
| 20260506202503 | 59 | 47 | 0.0 | 1.7 | 0.00 | 0.01 | 0.01 | 86 | 1010.2 |
| 20260506202003 | 60 | 47 | 0.0 | 1.7 | 0.00 | 0.01 | 0.01 | 86 | 1010.4 |
| 20260506201503 | 60 | 47 | 0.0 | 1.7 | 0.00 | 0.01 | 0.01 | 86 | 1010.1 |
| 20260506201003 | 60 | 47 | 0.0 | 1.7 | 0.00 | 0.01 | 0.01 | 86 | 1010.0 |
| 20260506200503 | 60 | 47 | 0.0 | 1.7 | 0.00 | 0.01 | 0.01 | 86 | 1010.0 |
| 20260506200003 | 60 | 47 | 0.0 | 1.7 | 0.00 | 0.01 | 0.01 | 85 | 1010.1 |
| 20260506195503 | 60 | 47 | 0.0 | 1.7 | 0.00 | 0.01 | 0.01 | 85 | 1010.2 |
| 20260506195003 | 60 | 47 | 0.0 | 1.7 | 0.00 | 0.01 | 0.01 | 85 | 1009.9 |
| 20260506194503 | 60 | 47 | 0.0 | 1.7 | 0.00 | 0.01 | 0.01 | 85 | 1009.9 |
| 20260506194003 | 60 | 47 | 0.0 | 1.7 | 0.00 | 0.01 | 0.01 | 85 | 1009.7 |
| 20260506193503 | 60 | 47 | 0.0 | 1.7 | 0.00 | 0.01 | 0.01 | 85 | 1009.4 |
| 20260506193003 | 60 | 47 | 0.0 | 1.7 | 0.00 | 0.01 | 0.01 | 85 | 1009.6 |
| 20260506192503 | 60 | 47 | 0.0 | 1.7 | 0.00 | 0.01 | 0.01 | 85 | 1009.5 |
| 20260506192003 | 61 | 47 | 0.0 | 1.7 | 0.00 | 0.01 | 0.01 | 85 | 1009.5 |
| 20260506191503 | 61 | 47 | 0.0 | 1.7 | 0.00 | 0.01 | 0.01 | 85 | 1009.5 |
| 20260506191003 | 61 | 47 | 0.0 | 1.7 | 0.00 | 0.01 | 0.01 | 85 | 1009.4 |
| 20260506190503 | 61 | 47 | 0.0 | 1.7 | 0.00 | 0.01 | 0.01 | 85 | 1009.3 |
| 20260506190004 | 61 | 47 | 0.0 | 1.7 | 0.00 | 0.01 | 0.01 | 85 | 1009.2 |
| 20260506185503 | 61 | 47 | 0.0 | 1.7 | 0.00 | 0.01 | 0.01 | 85 | 1009.3 |
| 20260506185003 | 61 | 47 | 0.0 | 1.7 | 0.00 | 0.01 | 0.01 | 84 | 1009.2 |
| 20260506184503 | 61 | 47 | 0.0 | 1.7 | 0.00 | 0.01 | 0.01 | 84 | 1009.2 |
| 20260506184003 | 61 | 47 | 0.0 | 1.7 | 0.00 | 0.01 | 0.01 | 84 | 1009.3 |
| 20260506183503 | 62 | 47 | 0.0 | 1.7 | 0.00 | 0.01 | 0.01 | 84 | 1009.1 |
| 20260506183003 | 62 | 47 | 0.0 | 1.7 | 0.00 | 0.01 | 0.01 | 84 | 1008.9 |
| 20260506182503 | 62 | 47 | 0.0 | 1.7 | 0.00 | 0.01 | 0.01 | 84 | 1008.9 |
| 20260506182003 | 62 | 47 | 0.0 | 1.7 | 0.00 | 0.01 | 0.01 | 84 | 1009.0 |
| 20260506181503 | 62 | 47 | 0.0 | 1.7 | 0.00 | 0.01 | 0.01 | 83 | 1008.7 |
| 20260506181003 | 62 | 47 | 0.0 | 1.7 | 0.00 | 0.01 | 0.01 | 83 | 1008.7 |
| 20260506180503 | 63 | 47 | 0.0 | 1.7 | 0.00 | 0.01 | 0.01 | 83 | 1008.6 |
| 20260506180004 | 63 | 47 | 0.0 | 1.7 | 0.00 | 0.01 | 0.01 | 83 | 1008.6 |
| 20260506175503 | 63 | 47 | 0.0 | 1.7 | 0.00 | 0.01 | 0.01 | 82 | 1008.5 |
| 20260506175003 | 63 | 47 | 0.0 | 1.7 | 0.00 | 0.01 | 0.01 | 82 | 1008.4 |
| 20260506174503 | 63 | 47 | 0.0 | 1.7 | 0.00 | 0.01 | 0.01 | 82 | 1008.4 |
| 20260506174003 | 64 | 47 | 0.0 | 1.7 | 0.00 | 0.01 | 0.01 | 82 | 1008.7 |
| 20260506173503 | 64 | 47 | 0.0 | 1.7 | 0.00 | 0.01 | 0.01 | 82 | 1008.8 |
| 20260506173003 | 64 | 47 | 0.0 | 1.7 | 0.00 | 0.01 | 0.01 | 82 | 1008.7 |
| 20260506172503 | 64 | 47 | 0.0 | 1.7 | 0.00 | 0.01 | 0.01 | 82 | 1008.8 |
| 20260506172003 | 64 | 47 | 0.0 | 1.7 | 0.00 | 0.01 | 0.01 | 82 | 1008.7 |
| 20260506171503 | 64 | 47 | 0.0 | 1.7 | 0.00 | 0.01 | 0.01 | 81 | 1008.5 |
| 20260506171003 | 64 | 47 | 0.0 | 1.7 | 0.00 | 0.01 | 0.01 | 81 | 1008.6 |
| 20260506170503 | 64 | 47 | 0.0 | 1.7 | 0.00 | 0.01 | 0.01 | 81 | 1008.3 |
| 20260506170003 | 64 | 47 | 0.0 | 1.7 | 0.00 | 0.01 | 0.01 | 81 | 1008.1 |
| 20260506165503 | 64 | 47 | 0.0 | 1.7 | 0.00 | 0.01 | 0.01 | 80 | 1008.5 |
| 20260506165003 | 64 | 47 | 0.0 | 1.7 | 0.00 | 0.01 | 0.01 | 80 | 1008.2 |
| 20260506164503 | 64 | 47 | 0.0 | 1.7 | 0.00 | 0.01 | 0.01 | 80 | 1008.4 |
| 20260506164003 | 64 | 47 | 0.0 | 1.7 | 0.00 | 0.01 | 0.01 | 80 | 1008.2 |
| 20260506163503 | 64 | 47 | 0.0 | 1.7 | 0.00 | 0.01 | 0.01 | 80 | 1008.4 |
| 20260506163003 | 64 | 47 | 0.0 | 1.7 | 0.00 | 0.01 | 0.01 | 80 | 1008.6 |
| 20260506162503 | 64 | 47 | 0.0 | 1.7 | 0.00 | 0.01 | 0.01 | 80 | 1008.5 |
| 20260506162003 | 64 | 47 | 0.0 | 1.7 | 0.00 | 0.01 | 0.01 | 79 | 1008.4 |
| 20260506161503 | 64 | 47 | 0.0 | 1.7 | 0.00 | 0.01 | 0.01 | 79 | 1008.6 |
| 20260506161003 | 65 | 47 | 0.0 | 1.7 | 0.00 | 0.01 | 0.01 | 78 | 1008.8 |
| 20260506160503 | 65 | 47 | 0.0 | 1.7 | 0.00 | 0.01 | 0.01 | 78 | 1008.7 |
| 20260506160003 | 65 | 75 | 0.9 | 7.0 | 0.00 | 0.01 | 0.01 | 77 | 1008.8 |
| 20260506155503 | 65 | 91 | 2.6 | 7.0 | 0.00 | 0.01 | 0.01 | 78 | 1008.4 |
| 20260506155003 | 65 | 102 | 3.5 | 7.8 | 0.00 | 0.01 | 0.01 | 77 | 1008.9 |
| 20260506154503 | 65 | 109 | 3.5 | 7.8 | 0.00 | 0.01 | 0.01 | 80 | 1008.6 |
| 20260506154003 | 65 | 109 | 3.5 | 6.1 | 0.00 | 0.01 | 0.01 | 81 | 1008.5 |
| 20260506153503 | 65 | 107 | 4.3 | 6.1 | 0.00 | 0.01 | 0.01 | 82 | 1008.8 |
| 20260506153003 | 65 | 106 | 4.3 | 5.2 | 0.00 | 0.01 | 0.01 | 82 | 1008.5 |
| 20260506152503 | 65 | 106 | 4.3 | 5.2 | 0.00 | 0.01 | 0.01 | 82 | 1008.6 |
| 20260506152003 | 65 | 106 | 4.3 | 5.2 | 0.00 | 0.01 | 0.01 | 82 | 1008.5 |
| 20260506151503 | 65 | 106 | 4.3 | 5.2 | 0.00 | 0.01 | 0.01 | 82 | 1008.6 |
| 20260506151003 | 64 | 104 | 4.3 | 7.0 | 0.00 | 0.01 | 0.01 | 82 | 1008.6 |
| 20260506150503 | 64 | 84 | 3.5 | 7.8 | 0.00 | 0.01 | 0.01 | 81 | 1008.5 |
| 20260506150003 | 64 | 55 | 3.5 | 7.8 | 0.00 | 0.01 | 0.01 | 81 | 1008.8 |
| 20260506145503 | 64 | 45 | 3.5 | 7.8 | 0.00 | 0.01 | 0.01 | 81 | 1008.8 |
| 20260506145003 | 64 | 46 | 3.5 | 6.1 | 0.00 | 0.01 | 0.01 | 82 | 1008.7 |
| 20260506144503 | 64 | 28 | 3.5 | 6.1 | 0.00 | 0.01 | 0.01 | 84 | 1008.7 |
| 20260506144003 | 64 | 3 | 4.3 | 4.3 | 0.00 | 0.01 | 0.01 | 84 | 1009.0 |
| 20260506143503 | 64 | 18 | 3.5 | 7.0 | 0.00 | 0.01 | 0.01 | 84 | 1009.0 |
| 20260506143003 | 64 | 37 | 3.5 | 7.0 | 0.00 | 0.01 | 0.01 | 84 | 1008.7 |
| 20260506142503 | 64 | 46 | 3.5 | 7.0 | 0.00 | 0.01 | 0.01 | 85 | 1009.0 |
| 20260506142003 | 64 | 42 | 3.5 | 7.8 | 0.00 | 0.01 | 0.01 | 85 | 1008.8 |
| 20260506141503 | 64 | 43 | 2.6 | 7.8 | 0.00 | 0.01 | 0.01 | 86 | 1008.9 |
| 20260506141003 | 63 | 52 | 2.6 | 5.2 | 0.00 | 0.01 | 0.01 | 86 | 1008.9 |
| 20260506140503 | 63 | 40 | 3.5 | 6.1 | 0.00 | 0.01 | 0.01 | 86 | 1008.9 |
| 20260506140003 | 63 | 37 | 3.5 | 6.1 | 0.00 | 0.01 | 0.01 | 87 | 1009.0 |
| 20260506135503 | 63 | 66 | 2.6 | 6.1 | 0.00 | 0.01 | 0.01 | 87 | 1009.0 |
| 20260506135003 | 63 | 82 | 2.6 | 6.1 | 0.00 | 0.01 | 0.01 | 87 | 1008.9 |
| 20260506134503 | 62 | 83 | 2.6 | 6.1 | 0.00 | 0.01 | 0.01 | 87 | 1009.1 |
| 20260506134003 | 62 | 83 | 2.6 | 6.1 | 0.00 | 0.01 | 0.01 | 87 | 1009.1 |
| 20260506133503 | 62 | 83 | 2.6 | 6.1 | 0.00 | 0.01 | 0.01 | 87 | 1009.2 |
| 20260506133003 | 62 | 83 | 2.6 | 6.1 | 0.00 | 0.01 | 0.01 | 87 | 1009.0 |
| 20260506132503 | 62 | 83 | 2.6 | 6.1 | 0.00 | 0.01 | 0.01 | 87 | 1009.1 |
| 20260506132003 | 62 | 83 | 2.6 | 6.1 | 0.00 | 0.01 | 0.01 | 87 | 1009.5 |
| 20260506131503 | 62 | 83 | 2.6 | 6.1 | 0.00 | 0.01 | 0.01 | 87 | 1009.1 |
| 20260506131003 | 62 | 83 | 2.6 | 6.1 | 0.00 | 0.01 | 0.01 | 87 | 1009.4 |
| 20260506130503 | 62 | 83 | 2.6 | 6.1 | 0.00 | 0.01 | 0.01 | 87 | 1009.3 |
| 20260506130003 | 62 | 83 | 2.6 | 6.1 | 0.00 | 0.01 | 0.01 | 86 | 1009.1 |
| 20260506125503 | 62 | 83 | 2.6 | 6.1 | 0.00 | 0.01 | 0.01 | 85 | 1009.2 |
| 20260506125003 | 62 | 83 | 2.6 | 6.1 | 0.00 | 0.01 | 0.01 | 84 | 1009.3 |
| 20260506124503 | 62 | 83 | 2.6 | 6.1 | 0.00 | 0.01 | 0.01 | 84 | 1009.4 |
| 20260506124003 | 62 | 83 | 2.6 | 6.1 | 0.00 | 0.01 | 0.01 | 83 | 1009.7 |
| 20260506123503 | 63 | 83 | 2.6 | 6.1 | 0.00 | 0.01 | 0.01 | 82 | 1009.7 |
| 20260506123003 | 63 | 83 | 2.6 | 6.1 | 0.00 | 0.01 | 0.01 | 81 | 1009.1 |
| 20260506122503 | 63 | 83 | 2.6 | 6.1 | 0.00 | 0.01 | 0.01 | 80 | 1009.4 |
| 20260506122003 | 64 | 83 | 2.6 | 6.1 | 0.00 | 0.01 | 0.01 | 80 | 1009.2 |
| 20260506121503 | 64 | 83 | 2.6 | 6.1 | 0.00 | 0.01 | 0.01 | 81 | 1009.4 |
| 20260506121003 | 64 | 83 | 2.6 | 6.1 | 0.00 | 0.01 | 0.01 | 81 | 1009.3 |
| 20260506120503 | 64 | 83 | 2.6 | 6.1 | 0.00 | 0.01 | 0.01 | 82 | 1009.1 |
| 20260506120003 | 64 | 83 | 2.6 | 6.1 | 0.00 | 0.01 | 0.01 | 82 | 1009.4 |
| 20260506115503 | 64 | 83 | 2.6 | 6.1 | 0.00 | 0.01 | 0.01 | 83 | 1009.4 |
| 20260506115003 | 64 | 83 | 2.6 | 6.1 | 0.00 | 0.01 | 0.01 | 83 | 1009.7 |
| 20260506114503 | 63 | 83 | 2.6 | 6.1 | 0.00 | 0.01 | 0.01 | 82 | 1009.7 |
| 20260506114003 | 63 | 83 | 2.6 | 6.1 | 0.00 | 0.01 | 0.01 | 82 | 1009.7 |
| 20260506113503 | 64 | 83 | 2.6 | 6.1 | 0.00 | 0.01 | 0.01 | 81 | 1009.7 |
| 20260506113003 | 64 | 79 | 2.6 | 7.0 | 0.00 | 0.01 | 0.01 | 81 | 1009.6 |
| 20260506112503 | 64 | 74 | 3.5 | 8.7 | 0.00 | 0.01 | 0.01 | 82 | 1010.0 |
| 20260506112003 | 64 | 60 | 3.5 | 8.7 | 0.00 | 0.01 | 0.01 | 82 | 1009.7 |
| 20260506111503 | 64 | 50 | 3.5 | 7.0 | 0.00 | 0.01 | 0.01 | 81 | 1009.7 |
| 20260506111003 | 64 | 57 | 3.5 | 8.7 | 0.00 | 0.01 | 0.01 | 81 | 1009.9 |
| 20260506110503 | 64 | 61 | 3.5 | 8.7 | 0.00 | 0.01 | 0.01 | 82 | 1010.1 |
| 20260506110003 | 63 | 55 | 4.3 | 7.8 | 0.00 | 0.01 | 0.01 | 83 | 1010.1 |
| 20260506105503 | 63 | 57 | 3.5 | 7.8 | 0.00 | 0.01 | 0.01 | 83 | 1010.2 |
| 20260506105003 | 63 | 78 | 3.5 | 7.8 | 0.00 | 0.01 | 0.01 | 83 | 1010.2 |
| 20260506104503 | 63 | 94 | 4.3 | 8.7 | 0.00 | 0.01 | 0.01 | 83 | 1010.4 |
| 20260506104003 | 62 | 98 | 4.3 | 8.7 | 0.00 | 0.01 | 0.01 | 84 | 1010.3 |
| 20260506103503 | 62 | 100 | 4.3 | 7.8 | 0.00 | 0.01 | 0.01 | 84 | 1010.4 |
| 20260506103003 | 62 | 99 | 4.3 | 5.2 | 0.00 | 0.01 | 0.01 | 83 | 1010.3 |
| 20260506102503 | 62 | 99 | 4.3 | 5.2 | 0.00 | 0.01 | 0.01 | 83 | 1010.3 |
| 20260506102003 | 62 | 99 | 4.3 | 5.2 | 0.00 | 0.01 | 0.01 | 83 | 1010.2 |
| 20260506101503 | 62 | 99 | 4.3 | 5.2 | 0.00 | 0.01 | 0.01 | 83 | 1010.5 |
| 20260506101003 | 62 | 97 | 4.3 | 5.2 | 0.00 | 0.01 | 0.01 | 82 | 1010.5 |
| 20260506100503 | 62 | 96 | 3.5 | 6.1 | 0.00 | 0.01 | 0.01 | 82 | 1010.6 |
| 20260506100003 | 62 | 99 | 3.5 | 7.8 | 0.00 | 0.01 | 0.01 | 83 | 1010.6 |
| 20260506095503 | 62 | 112 | 3.5 | 7.8 | 0.00 | 0.01 | 0.01 | 84 | 1010.6 |
| 20260506095003 | 62 | 121 | 3.5 | 6.1 | 0.00 | 0.01 | 0.01 | 85 | 1010.7 |
| 20260506094503 | 62 | 119 | 3.5 | 7.8 | 0.00 | 0.01 | 0.01 | 86 | 1010.5 |
| 20260506094003 | 62 | 112 | 4.3 | 7.8 | 0.00 | 0.01 | 0.01 | 86 | 1010.4 |
| 20260506093503 | 61 | 110 | 4.3 | 8.7 | 0.00 | 0.01 | 0.01 | 86 | 1010.5 |
| 20260506093003 | 61 | 109 | 2.6 | 8.7 | 0.00 | 0.01 | 0.01 | 86 | 1010.5 |
| 20260506092503 | 61 | 102 | 1.7 | 1.7 | 0.00 | 0.01 | 0.01 | 85 | 1010.6 |
| 20260506092003 | 61 | 102 | 1.7 | 1.7 | 0.00 | 0.01 | 0.01 | 85 | 1011.0 |
| 20260506091503 | 61 | 102 | 1.7 | 1.7 | 0.00 | 0.01 | 0.01 | 85 | 1010.6 |
| 20260506091003 | 61 | 102 | 1.7 | 1.7 | 0.00 | 0.02 | 0.01 | 84 | 1010.7 |
| 20260506090503 | 61 | 102 | 1.7 | 1.7 | 0.00 | 0.02 | 0.01 | 84 | 1010.7 |
| 20260506090003 | 61 | 102 | 1.7 | 1.7 | 0.00 | 0.02 | 0.01 | 84 | 1010.7 |
| 20260506085503 | 61 | 102 | 1.7 | 1.7 | 0.00 | 0.02 | 0.01 | 84 | 1010.7 |
| 20260506085003 | 61 | 102 | 1.7 | 1.7 | 0.00 | 0.02 | 0.01 | 83 | 1010.7 |
| 20260506084503 | 62 | 102 | 1.7 | 1.7 | 0.00 | 0.02 | 0.01 | 83 | 1010.2 |
| 20260506084003 | 62 | 116 | 1.7 | 5.2 | 0.00 | 0.02 | 0.01 | 84 | 1010.4 |
| 20260506083503 | 62 | 108 | 1.7 | 5.2 | 0.00 | 0.02 | 0.01 | 84 | 1010.5 |
| 20260506083003 | 62 | 63 | 1.7 | 4.3 | 0.00 | 0.02 | 0.01 | 85 | 1010.4 |
| 20260506082503 | 62 | 53 | 1.7 | 5.2 | 0.00 | 0.02 | 0.01 | 85 | 1010.1 |
| 20260506082003 | 62 | 66 | 0.9 | 5.2 | 0.00 | 0.02 | 0.01 | 86 | 1010.2 |
| 20260506081503 | 61 | 95 | 0.0 | 2.6 | 0.00 | 0.02 | 0.01 | 86 | 1010.2 |
| 20260506081003 | 61 | 100 | 0.9 | 4.3 | 0.00 | 0.02 | 0.01 | 87 | 1010.2 |
| 20260506080503 | 60 | 118 | 1.7 | 5.2 | 0.00 | 0.02 | 0.01 | 87 | 1010.2 |